Regional Weather Roundup
Issued by NWS

Home | Current Version | Previous Version | Graphics & Text | Print | Product List | Glossary On
Versions: 1 2 3 4 5 6 7 8 9 10 11 12 13 14 15 16 17 18 19 20 21 22 23 24 25 26 27 28 29 30 31 32 33 34 35 36 37 38 39 40 41 42 43 44 45 46 47 48 49 50
032
ASUS43 KOAX 210302
RWRNE

WEATHER ROUNDUP FOR NEBRASKA
NATIONAL WEATHER SERVICE OMAHA NE
900 PM CST FRI JAN 20 2017

NOTES: SATELLITE DATA IS BEING USED TO AUGMENT CLOUD COVER ABOVE
       12000 FEET.
       "FAIR" INDICATES FEW OR NO CLOUDS BELOW 12,000 FEET WITH NO
       SIGNIFICANT WEATHER AND/OR OBSTRUCTIONS TO VISIBILITY.

  * THESE STATIONS DO NOT REPORT WEATHER SUCH AS RAIN...SNOW OR FOG.

NEZ001>004-019>022-054>056-210400-
NEBRASKA PANHANDLE

CITY           SKY/WX    TMP DP  RH WIND       PRES   REMARKS
SCOTTSBLUFF    CLOUDY    35  32  88 NW7       29.40F WCI  29
ALLIANCE       MIX PCPN  34  33  96 W9        29.39R WCI  27
CHADRON        CLOUDY    36  32  85 W16       29.38S WCI  26
SIDNEY         CLOUDY    35  31  85 NW9       29.42S WCI  28
$$

NEZ057>060-069>072-079>082-210400-
SOUTHWEST NEBRASKA

CITY           SKY/WX    TMP DP  RH WIND       PRES   REMARKS
NORTH PLATTE   CLOUDY    35  32  88 CALM      29.39R
IMPERIAL       CLOUDY    37  32  82 W9        29.42R WCI  30
LEXINGTON      CLOUDY    36  34  92 SW6       29.39F WCI  31
MCCOOK         CLOUDY    38  36  92 NW6       29.40S WCI  33
OGALLALA       CLOUDY    36  33  90 NW6       29.40S WCI  31
$$

NEZ005>010-023>029-035>040-094-210400-
NORTH CENTRAL NEBRASKA

CITY           SKY/WX    TMP DP  RH WIND       PRES   REMARKS
VALENTINE      CLOUDY    37  30  75 W7        29.35S WCI  32
AINSWORTH      MOCLDY    32  30  92 CALM      29.35S
BROKEN BOW     FOG       34  34 100 N3        29.37S VSB 3/4
O`NEILL        CLOUDY    40  40  99 S6        29.38S FOG
ORD            FOG       38  36  92 S6        29.38S VSB 1/4 WCI  33
THEDFORD       CLOUDY    34  32  93 CALM      29.37S
$$

NEZ041-046>049-061>064-073>077-083>087-210400-
SOUTH CENTRAL NEBRASKA

CITY           SKY/WX    TMP DP  RH WIND       PRES   REMARKS
GRAND ISLAND   CLOUDY    38  38 100 S5        29.40F FOG     WCI  34
AURORA         CLOUDY    39  39 100 SW5       29.40F FOG
HASTINGS       FOG       39  38  96 S3        29.40F VSB 1/4
HEBRON         DRZL/FOG  40  40 100 CALM      29.42S VSB 3/4
HOLDREGE       CLOUDY    37  36  97 SW5       29.40S FOG     WCI  33
KEARNEY *      CLOUDY    37 -11  12 S3        29.40S VSB 3/4
YORK           FOG       39  39 100 CALM      29.41S VSB 1/4
$$

NEZ011>018-030>034-042>045-210400-
NORTHEAST NEBRASKA

CITY           SKY/WX    TMP DP  RH WIND       PRES   REMARKS
NORFOLK        LGT RAIN  38  38 100 SE6       29.40S FOG     WCI  33
ALBION         FOG      N/A N/A N/A SE5       29.40S VSB 1/2
BLAIR          FOG       41  40  97 SE8       29.43S VSB 1/2
FREMONT        DRIZZLE   40  40 100 E6        29.43F
TEKAMAH        CLOUDY    38  37  97 S5        29.45S FOG     WCI  34
WAYNE          RAIN      38  38  99 SE10      29.42S WCI  31
$$

NEZ050>053-065>068-078-088>093-210400-
SOUTHEAST NEBRASKA

CITY           SKY/WX    TMP DP  RH WIND       PRES   REMARKS
LINCOLN        CLOUDY    42  42 100 SE5       29.43F
OMAHA EPPLEY   CLOUDY    41  38  89 SE8       29.45S
BEATRICE       CLOUDY    44  44 100 SE3       29.42F FOG
FALLS CITY     FOG       44  44 100 SE7       29.43F VSB 1/2
NEBRASKA CITY  FOG       42  42 100 SE5       29.43F VSB 1/4
PLATTSMOUTH    FOG       41  39  93 SE6       29.44S VSB 1/4
$$

NEZ044-045-051>053-067-210400-
OMAHA AREA

CITY           SKY/WX    TMP DP  RH WIND       PRES   REMARKS
OMAHA EPPLEY   CLOUDY    41  38  89 SE8       29.45S
BLAIR          FOG       41  40  97 SE8       29.43S VSB 1/2
FREMONT        DRIZZLE   40  40 100 E6        29.43F
MILLARD        CLOUDY    43  42  96 SE5       29.44F FOG
OFFUTT AFB     CLOUDY    41  41 100 E5        29.44S FOG
PLATTSMOUTH    FOG       41  39  93 SE6       29.44S VSB 1/4
WAHOO          LGT RAIN  39  38  97 SE7       29.43S VSB 1/2 WCI  34
$$




USA.gov is the U.S. government's official web portal to all federal, state and local government web resources and services.